Skip Page Navigation
NASA JPL Caltech
NASA Logo - Jet Propulsion Laboratory + View the NASA Portal
+ Center for Near-Earth Object Studies
JPL Home Earth Solar System Stars & Galaxies Technology
JPL Solar System Dynamics
BODIES ORBITS EPHEMERIDES TOOLS PHYSICAL DATA DISCOVERY FAQ SITE MAP
IMPORTANT: The SSD Announcement email list is now available. Major changes are coming in the near future, including possible hostname and/or URL changes. To be notified of such changes, subscribe to this email list.

Please visit this page for more details.


JPL Small-Body Database Browser
Search: [ help ]  
523108 (2016 RG50)
Classification: Main-belt Asteroid          SPK-ID: 2523108
Ephemeris | Orbit Diagram | Orbital Elements | Mission Design | Physical Parameters | Discovery Circumstances ]

[ show orbit diagram ]
Orbital Elements at Epoch 2458600.5 (2019-Apr-27.0) TDB
Reference: JPL 3 (heliocentric ecliptic J2000)
 Element Value Uncertainty (1-sigma)   Units 
e .02522433851399357 1.0406e-07  
a 2.554680643702394 6.0234e-08 au
q 2.490240514350498 2.4984e-07 au
i 13.78792618458937 1.4069e-05 deg
node 138.0426750438531 4.8151e-05 deg
peri 148.7084614196859 0.0006474 deg
M 332.3420981171624 0.00066523 deg
tp 2458715.082972344183
(2019-Aug-19.58297234)
0.0027587 TDB
period 1491.431642886203
4.08
5.2747e-05
1.444e-07
d
yr
n .2413788132477408 8.5367e-09 deg/d
Q 2.619120773054291 6.1753e-08 au
  Orbit Determination Parameters
   # obs. used (total)      55  
   data-arc span      5848 days (16.01 yr)  
   first obs. used      2002-03-12  
   last obs. used      2018-03-16  
   planetary ephem.      DE431  
   SB-pert. ephem.      SB431-N16  
   condition code      0  
   norm. resid. RMS      .6286  
   source      ORB  
   producer      Otto Matic  
   solution date      2018-May-31 17:55:48  

Additional Information
 Earth MOID = 1.47994 au 
 Jupiter MOID = 2.476 au 
 T_jup = 3.397 
[ show covariance matrix ]

Ephemeris | Orbit Diagram | Orbital Elements | Mission Design | Physical Parameters | Discovery Circumstances ]

Physical Parameter Table
Parameter Symbol Value Units Sigma Reference Notes
absolute magnitude H 17.0   n/a MPO448150  

523108 (2016 RG50)          Discovered 2014-Feb-11 by Mt. Lemmon Survey at Mount Lemmon
Reference: Last Updated: 2018-05-31
Ephemeris | Orbit Diagram | Orbital Elements | Mission Design | Physical Parameters | Discovery Circumstances ]
ABOUT SSD CREDITS/AWARDS PRIVACY/COPYRIGHT GLOSSARY LINKS
FirstGov 2020-Jan-19 05:35 UT
(server date/time)  
NASA Home Page
Site Manager:   Ryan S. Park
Webmaster  Alan B. Chamberlin